This is the latest recevied weather packets stored in our database for station/object KE5VT. If no packets are shown the sender has not sent any weather packets the latest 10 day(s).
| Time | Temp. | Humidity | Pressure | Rain* | Wind** | Luminosity | Snow |
|---|---|---|---|---|---|---|---|
| 1788091854 | 23.33° C | 99% | 1019.5 hPa | 0 mm | - | 33 W/m² | - |
| 1788091549 | 23.33° C | 99% | 1019.5 hPa | 0 mm | - | 32 W/m² | - |
| 1788091246 | 23.33° C | 99% | 1019.3 hPa | 0 mm | - | 25 W/m² | - |
| 1788090941 | 23.33° C | 99% | 1019.4 hPa | 0 mm | - | 21 W/m² | - |
| 1788090636 | 22.78° C | 99% | 1019.3 hPa | 0 mm | - | 18 W/m² | - |
| 1788090333 | 22.78° C | 99% | 1019.4 hPa | 0 mm | - | 17 W/m² | - |
| 1788090032 | 22.78° C | 99% | 1019.4 hPa | 0 mm | - | 13 W/m² | - |
| 1788089728 | 22.78° C | 99% | 1019.2 hPa | 0 mm | - | 12 W/m² | - |
| 1788089423 | 22.78° C | 99% | 1019.3 hPa | 0 mm | - | 11 W/m² | - |
| 1788089119 | 22.78° C | 99% | 1019.3 hPa | 0 mm | - | 9 W/m² | - |
| 1788088815 | 22.78° C | 99% | 1019.2 hPa | 0 mm | - | 7 W/m² | - |
| 1788088510 | 22.78° C | 99% | 1018.9 hPa | 0 mm | - | 6 W/m² | - |
| 1788088207 | 22.78° C | 99% | 1018.9 hPa | 0 mm | - | 3 W/m² | - |
| 1788087907 | 22.78° C | 99% | 1018.7 hPa | 0 mm | - | 2 W/m² | - |
| 1788087607 | 22.78° C | 99% | 1019 hPa | 0 mm | - | 1 W/m² | - |
| 1788087302 | 22.78° C | 99% | 1018.7 hPa | 0 mm | - | 0 W/m² | - |
| 1788086998 | 22.78° C | 99% | 1018.6 hPa | 0 mm | - | 0 W/m² | - |
| 1788086694 | 22.78° C | 99% | 1018.6 hPa | 0 mm | - | 0 W/m² | - |
| 1788086390 | 22.78° C | 99% | 1018.4 hPa | 0 mm | - | 0 W/m² | - |
| 1788086086 | 22.78° C | 99% | 1018.4 hPa | 0 mm | - | 0 W/m² | - |
| 1788085783 | 23.33° C | 99% | 1018.2 hPa | 0 mm | - | 0 W/m² | - |
| 1788085479 | 23.33° C | 99% | 1018.5 hPa | 0 mm | - | 0 W/m² | - |
| 1788085175 | 23.33° C | 99% | 1018.3 hPa | 0 mm | - | 0 W/m² | - |
| 1788084870 | 22.78° C | 99% | 1018.4 hPa | 0 mm | - | 0 W/m² | - |
| 1788084570 | 22.78° C | 99% | 1018.5 hPa | 0 mm | - | 0 W/m² | - |
* Rain latest hour (hover to see other rain measurements)
** Current wind speed in m/s (hover to see current wind gust speed)